Location: Vinland
(47.7731°N, 122.6974°W)
Time: 07:15:37
(UTC+00:00)

Vanguard 2 - Pass Details

Date: 21 April 2024
Orbit: 552 x 2914 km, 32.9° (Epoch: 25 May)

Event Time Altitude Azimuth Distance (km) Brightness Sun altitude
Exits shadow 07:32:01 16° 119° (ESE) 4,972 11.3 -29.6°
Drops below altitude 10° 07:37:29 10° 101° (ESE) 5,658 11.7 -29.7°
Sets 07:44:20 0° 86° (E) 6,765 12.3 -29.9°
